Weather History for West Palm Beach, FL

Change the Weather History Date:

Monday, April 14, 2014

  Actual Average Record
Temperature  
Mean Temperature 81 °F 74 °F  
Max Temperature 87 °F 82 °F 90 °F (1952)
Min Temperature 74 °F 66 °F 49 °F (1971)
Degree Days  
Heating Degree Days 0 0  
Month to date heating degree days 0 0  
Since 1 July heating degree days 122 229  
Cooling Degree Days 16 9  
Month to date cooling degree days 138 110  
Year to date cooling degree days 686 538  
Growing Degree Days 30 (Base 50)    
Moisture  
Dew Point 70 °F    
Average Humidity 74    
Maximum Humidity 87    
Minimum Humidity 61    
Precipitation  
Precipitation 0.09 in 0.12 in 5.10 in (2002)
Month to date precipitation 0.50 1.85  
Year to date precipitation 14.38 12.39  
Snow  
Snow 0.00 in - - ()
Month to date snowfall 0.0  
Since 1 July snowfall 0.0  
Snow Depth 0.00 in    
Sea Level Pressure  
Sea Level Pressure 29.96 in    
Wind  
Wind Speed 12 mph (SE)    
Max Wind Speed 20 mph    
Max Gust Speed 26 mph    
Visibility 10 miles    
Events Rain    
T = Trace of Precipitation, MM = Missing Value Source: NWS Daily Summary

Daily Weather History Graph

Daily Weather History Graph

Search for Another Location

Airport:

Trip Planner

Search our weather history database for the weather conditions in past years. The results will help you decide how hot, cold, wet, or windy it might be!

Date:

Astronomy

Apr. 14, 2014 Rise Set
Actual Time 6:57 AM EDT 7:43 PM EDT
Civil Twilight 6:34 AM EDT 8:07 PM EDT
Nautical Twilight 6:06 AM EDT 8:35 PM EDT
Astronomical Twilight 5:37 AM EDT 9:04 PM EDT
Moon 7:22 PM EDT (4/14) 6:24 AM EDT (4/14)
Length of Visible Light 13h 33m
Length of Day
12h 46m
Full, 100% of the Moon is Illuminated
Apr 14
Full
Apr 15
Full
Apr 22
Last Quarter
Apr 29
New
May 6
First Quarter

Hourly Weather History & Observations

Time (EDT) Temp. Heat Index Dew Point Humidity Pressure Visibility Wind Dir Wind Speed Gust Speed Precip Events Conditions
12:07 AM 75.0 °F - 69.1 °F 82% 30.01 in 10.0 mi East 15.0 mph - N/A   Mostly Cloudy
12:53 AM 75.0 °F - 69.1 °F 82% 30.00 in 10.0 mi ESE 15.0 mph - N/A   Mostly Cloudy
1:51 AM 75.2 °F - 69.8 °F 83% 29.99 in 10.0 mi ESE 15.0 mph - N/A   Mostly Cloudy
1:53 AM 75.9 °F - 70.0 °F 82% 29.99 in 10.0 mi ESE 13.8 mph - N/A   Mostly Cloudy
2:53 AM 75.0 °F - 69.1 °F 82% 29.97 in 10.0 mi ESE 11.5 mph - N/A   Mostly Cloudy
3:15 AM 73.9 °F - 69.1 °F 85% 29.97 in 10.0 mi ESE 10.4 mph - N/A   Scattered Clouds
3:53 AM 75.0 °F - 69.1 °F 82% 29.96 in 10.0 mi ESE 9.2 mph - N/A   Scattered Clouds
4:53 AM 73.9 °F - 69.1 °F 85% 29.95 in 10.0 mi ESE 8.1 mph - N/A   Partly Cloudy
5:53 AM 75.0 °F - 70.0 °F 84% 29.95 in 10.0 mi ESE 6.9 mph - N/A   Scattered Clouds
6:34 AM 75.0 °F - 71.1 °F 87% 29.96 in 5.0 mi SE 8.1 mph - 0.00 in Rain Light Rain
6:53 AM 75.0 °F - 71.1 °F 87% 29.96 in 8.0 mi SE 5.8 mph - 0.09 in Rain Light Rain
7:53 AM 75.9 °F - 71.1 °F 85% 29.98 in 10.0 mi SE 6.9 mph - 0.00 in   Mostly Cloudy
8:53 AM 79.0 °F - 72.0 °F 79% 29.98 in 10.0 mi SSE 10.4 mph - N/A   Mostly Cloudy
9:53 AM 80.1 °F 83.6 °F 71.1 °F 74% 29.99 in 10.0 mi SSE 9.2 mph - N/A   Mostly Cloudy
10:53 AM 82.0 °F 86.3 °F 71.1 °F 69% 30.00 in 10.0 mi SSE 11.5 mph - N/A   Scattered Clouds
11:53 AM 82.9 °F 87.0 °F 70.0 °F 65% 30.00 in 10.0 mi SSE 16.1 mph - N/A   Mostly Cloudy
12:53 PM 84.9 °F 88.8 °F 69.1 °F 59% 29.98 in 10.0 mi SE 16.1 mph - N/A   Mostly Cloudy
1:53 PM 84.9 °F 88.8 °F 69.1 °F 59% 29.96 in 10.0 mi SSE 15.0 mph - N/A   Mostly Cloudy
2:53 PM 86.0 °F 91.5 °F 71.1 °F 61% 29.95 in 10.0 mi SE 18.4 mph - N/A   Mostly Cloudy
3:53 PM 84.0 °F 88.4 °F 70.0 °F 63% 29.92 in 10.0 mi SE 18.4 mph - N/A   Scattered Clouds
4:53 PM 82.9 °F 87.0 °F 70.0 °F 65% 29.92 in 10.0 mi SSE 16.1 mph - N/A   Scattered Clouds
5:53 PM 81.0 °F 84.4 °F 70.0 °F 69% 29.91 in 10.0 mi SSE 18.4 mph - N/A   Mostly Cloudy
6:53 PM 80.1 °F 83.6 °F 71.1 °F 74% 29.91 in 10.0 mi SE 18.4 mph - N/A   Mostly Cloudy
7:53 PM 78.1 °F - 71.1 °F 79% 29.91 in 10.0 mi SSE 12.7 mph - N/A   Mostly Cloudy
8:53 PM 78.1 °F - 71.1 °F 79% 29.93 in 10.0 mi SSE 12.7 mph - N/A   Mostly Cloudy
9:53 PM 78.1 °F - 71.1 °F 79% 29.94 in 10.0 mi South 9.2 mph - N/A   Mostly Cloudy
10:53 PM 78.1 °F - 71.1 °F 79% 29.93 in 10.0 mi SSE 9.2 mph - N/A   Scattered Clouds
11:53 PM 77.0 °F - 70.0 °F 79% 29.93 in 10.0 mi SSE 8.1 mph - N/A   Scattered Clouds